Regional Weather Roundup
Issued by NWS

Home | Current Version | Previous Version | Text Only | Print | Product List | Glossary Off
Versions: 1 2 3 4 5 6 7 8 9 10 11 12 13 14 15 16 17 18 19 20 21 22 23 24 25 26 27 28 29 30 31 32 33 34 35 36 37 38 39 40 41 42 43 44 45 46 47 48 49 50

000
ASUS43 KFSD 282302
RWRSD

WEATHER ROUNDUP FOR SOUTH DAKOTA
NATIONAL WEATHER SERVICE SIOUX FALLS SD
500 PM CST SAT FEB 28 2015

NOTE: "FAIR" INDICATES FEW OR NO CLOUDS BELOW 12,000 FEET WITH NO
SIGNIFICANT WEATHER AND/OR OBSTRUCTIONS TO VISIBILITY.


SDZ001>005-009-010-012>017-010000-
NORTHWEST AND NORTH CENTRAL SOUTH DAKOTA

CITY           SKY/WX    TMP DP  RH WIND       PRES   REMARKS
BUFFALO          N/A     19   7  59 W18G25    30.04R WCI   4
FAITH            N/A     22   4  46 NW17      30.12R WCI   8
MOBRIDGE       MOSUNNY   24  10  55 NW13      30.12R WCI  12
$$

SDZ012>016-024>037-041>051-057-063-072>074-010000-
SOUTHWEST AND SOUTH CENTRAL SOUTH DAKOTA

CITY           SKY/WX    TMP DP  RH WIND       PRES   REMARKS
RAPID CTY ARPT MOSUNNY   22  11  62 N15       30.10R WCI   9
PIERRE         SUNNY     30   7  37 NW15      30.14R WCI  19
CUSTER         CLOUDY    19   9  65 SE10      29.93R WCI   7
ELLSWORTH AFB  MOSUNNY   22   9  57 N16       30.08S WCI   9
PHILIP         SUNNY     30   2  30 NW17      30.14R WCI  18
PINE RIDGE     MOSUNNY   30   6  36 SE6       30.06F WCI  24
WINNER         FAIR      35   4  27 NW14      30.12R WCI  26
$$

SDZ004>011-016>023-039-040-010000-
NORTHEAST SOUTH DAKOTA

CITY           SKY/WX    TMP DP  RH WIND       PRES   REMARKS
ABERDEEN       CLOUDY    28  15  58 SW9       30.14S WCI  19
WATERTOWN      SUNNY     25  13  60 S14       30.13F WCI  13
$$

SDZ017-020-022-023-036>040-048>070-010000-
SOUTHEAST SOUTH DAKOTA

CITY           SKY/WX    TMP DP  RH WIND       PRES   REMARKS
SIOUX FALLS    PTSUNNY   27  13  55 S15G23    30.20F WCI  15
HURON          CLOUDY    32  15  49 S8        30.13F WCI  25
MITCHELL       SUNNY     34  10  37 S13       30.17S WCI  25
YANKTON        SUNNY     30  10  43 SW13G20   30.23S WCI  20
$$

ABBREVIATIONS USED IN REMARKS
   TC - TEMPERATURE IN CELSIUS
  WCI - WIND CHILL INDEX
   HX - HEAT INDEX
  VSB - VISIBILITY



USA.gov is the U.S. government's official web portal to all federal, state and local government web resources and services.